User: anonymous   Login
Location: *
(50.2903°S, 172.5375°W)
Time: 14:17:05
(UTC+00:00)
Language:

Cosmos 2278 Rocket - Orbit

View from above orbital plane
View from above orbital plane
View from above satellite
View from above satellite

Ground track
Ground track

The orbit data is extracted from the following two-line orbital elements,

1 23088U 94023B   20021.19709270 -.00000267  00000-0 -11409-3 0  9994
2 23088  71.0009  92.3013 0000809 126.3308 233.7889 14.14681129329616
Epoch (UTC): 21 January 2020 04:43:48
Eccentricity: 0.0000809
inclination: 71.0009°
perigee height: 843 km
apogee height: 844 km
right ascension of ascending node: 92.3013°
argument of perigee: 126.3308°
revolutions per day: 14.14681129
mean anomaly at epoch: 233.7889°
orbit number at epoch: 32961

The dashed part of the orbit path shows where the satellite is in the earth's shadow,  

DLR